カタログに戻る

DELTA 1 DEB

YO

運用中HEO
NORAD 28144·DEBRIS·🇺🇸 United States

打ち上げ Jul 8, 1976 から Cape Canaveral Space Force Station

Loading…

次のパス (今後24時間)

TLE

最新Source: Space-Track

元期: Sep 8, 2026, 03:49 UTC

1 28144U 76066D   26251.15935884  .00001547  00000-0  83042-3 0  9990
2 28144  24.5658 292.3859 4399205 258.6843  50.2759  6.48969425330239

AllMySatでDELTA 1 DEBをリアルタイム追跡

Download on the App Store